Location: Montbazon
(47.2835°N, 0.6999°E)
Time: 07:36:37
(UTC+00:00)

Iridium 4 Rocket - Pass Details

Date: 08 November 2025
Orbit: 579 x 887 km, 86.9° (Epoch: 12 December)

Event Time Altitude Azimuth Distance (km) Brightness Sun altitude
Rises 06:04:57 0° 344° (NNW) 2,948 6.2 -8.2°
Reaches altitude 10° 06:07:40 10° 329° (NNW) 1,991 5.2 -7.8°
Maximum altitude 06:10:54 21° 281° (W) 1,369 4.2 -7.2°
Drops below altitude 10° 06:14:01 10° 232° (SW) 1,909 5.2 -6.7°
Sets 06:16:34 0° 216° (SW) 2,790 6.2 -6.3°
